Regional Weather Roundup
Issued by NWS Grand Forks, ND

Home | Current Version | Previous Version | Text Only | Print | Product List | Glossary Off
Versions: 1 2 3 4 5 6 7 8 9 10 11 12 13 14 15 16 17 18 19 20 21 22 23 24 25 26 27 28 29 30 31 32 33 34 35 36 37 38 39 40 41 42 43 44 45 46 47 48 49 50

000
ASUS43 KFGF 060710
RWRFGF
PRAIRIE TO PINES  WEATHER ROUNDUP
NATIONAL WEATHER SERVICE EASTERN NORTH DAKOTA/GRAND FORKS ND
100 AM CST FRI MAR 06 2015

 **SATELLITE DATA USED TO AUGMENT SKY COVER AT AUTOMATED STATIONS**
 *****  WEATHER ACROSS EASTERN NORTH DAKOTA  *****

CITY           SKY/WX    TMP DP  RH WIND       PRES   REMARKS
GRAND FORKS    FAIR      15   9  76 S6        29.96S WCI   6
GRAND FRKS AFB FAIR      15   8  72 VRB3      29.94S
GRAND FRKS NWS   N/A     16 N/A N/A SW7         N/A  WCI   6
DEVILS LAKE    CLEAR     19  12  73 NW16      29.93S WCI   5
FARGO          CLOUDY    18   8  65 S15       30.01F WCI   4
WAHPETON ARPT  PTSUNNY   12   5  73 SE6       30.04F WCI   3
$$

 ***** WEATHER ACROSS CENTRAL AND WESTERN NORTH DAKOTA  *****

CITY           SKY/WX    TMP DP  RH WIND       PRES   REMARKS
BISMARCK       MOCLDY    26  14  60 W9        30.01F WCI  17
MINOT          CLEAR     24  15  68 W20       29.99R WCI  10
JAMESTOWN      CLEAR     23  11  60 W12       29.95F WCI  12
MINOT AFB      CLEAR     19  16  88 NW12      29.99R WCI   6
GARRISON         N/A     25  16  68 NW15      29.99R WCI  13
WILLISTON      CLEAR     26  18  71 NW5       30.04S WCI  20
DICKINSON      PTCLDY    25  13  60 W10       30.00S WCI  15
HETTINGER      MOCLDY    26  13  57 W9        30.05F WCI  17
$$

 *****  OTHER AIRPORT OBSERVATIONS IN OUR AREA  *****

CITY           SKY/WX    TMP DP  RH WIND       PRES   REMARKS
WALHALLA         N/A     21  12  68 NW14      29.93R WCI   8
GRAFTON AIRPOR NOT AVBL
VALLEY CITY AR FAIR      14  10  85 SW7       29.96F WCI   4
CANDO          FAIR      10   7  85 NW9       29.95S WCI  -2
CAVALIER APRT  FAIR      23  12  63 NW14G20   29.93S WCI  11
GWINNER        MOSUNNY   19  10  68 SW12      30.02F WCI   7
ROLLA          FAIR      19  10  68 NW21      29.92S WCI   3
 ***** THE ABOVE OBSERVATIONS ARE NON NWS ARE NOT QUALITY
       CONTROLLED AND MAY MIS-REPORT RAIN FOR SNOW...
$$

  *****  WEATHER ACROSS NORTHERN MINNESOTA  *****

CITY           SKY/WX    TMP DP  RH WIND       PRES   REMARKS
FLAG ISLAND    CLOUDY    16   9  73 SW14      29.86S WCI   1
WARROAD        PTCLDY    18  10  73 SW14G20   29.88F WCI   4
ROSEAU         CLEAR     19  10  68 SW16      29.88F WCI   5
HALLOCK        NOT AVBL
THF RVR FALLS  CLOUDY    18  10  73 SW14      29.93F WCI   4
BAUDETTE       CLOUDY    14   5  67 S9        29.88F WCI   2
WASKISH        CLOUDY    16   7  67 S7        29.93F WCI   6
CROOKSTON      CLOUDY    18  12  79 SW12      29.98F WCI   5
STEPHEN NDAWN    N/A     16  10  79 SW12        N/A  WCI   3
GREENBUSH NDAW   N/A     16  10  79 SW13        N/A  WCI   2
$$
  *****  WEATHER ACROSS CENTRAL AND WEST MINNESOTA  *****

CITY           SKY/WX    TMP DP  RH WIND       PRES   REMARKS
FOSSTON        CLOUDY    16   7  67 S21       29.96F WCI  -2
BEMIDJI        MOCLDY    13   4  68 SW12G18   29.96F WCI  -1
PARK RAPIDS    PTCLDY     8   1  73 S9        29.99F WCI  -5
ELBOW LAKE     FAIR      11   5  76 S14       30.05F WCI  -5
WADENA         CLEAR      9   1  72 S9        30.03F WCI  -5
DETROIT LAKES  FAIR      12   7  79 S8        30.00F WCI   1
MOORHEAD       CLOUDY    16  10  79 S13G18    30.02F WCI   2
FERGUS FALLS   PTCLDY    12   3  67 S14       30.07F WCI  -3
MORRIS MN      CLEAR     10   3  72 S13       30.07F WCI  -5
STAPLES        CLEAR      7   1  78 S12       30.05F WCI  -9
$$
  *****  WEATHER ELSEWHERE ACROSS MINNESOTA  *****

CITY           SKY/WX    TMP DP  RH WIND       PRES   REMARKS
DULUTH         CLEAR      6  -3  66 SW14      30.08F WCI -11
INTRNTL FALLS  CLOUDY    12   1  61 SW9G20    29.93F WCI   0
ELY            CLOUDY     7   0  72 SW12G17   30.01F WCI  -9
CLOQUET        CLEAR      7  -2  66 S9G16     30.09F WCI  -7
WHEATON        PTCLDY     9   3  78 SE10      30.08F WCI  -6
BRAINERD       CLEAR      8   1  73 S13       30.08F WCI  -8
HIBBING        CLEAR      3  -4  72 S5        30.04F WCI  -6
ALEXANDRIA     CLEAR     13   4  67 S13       30.06F WCI  -2
SAINT CLOUD    PTCLDY     8   1  73 S12       30.15F WCI  -7
MINNEAPOLIS    PTCLDY     7   0  73 SE8       30.24F WCI  -6
$$

  *****  WEATHER ACROSS SOUTH DAKOTA  *****

CITY           SKY/WX    TMP DP  RH WIND       PRES   REMARKS
SIOUX FALLS    CLEAR     22   8  55 S13       30.12F WCI  10
BROOKINGS      NOT AVBL
WATERTOWN      CLEAR     12   4  70 S8        30.06F WCI   0
HURON          CLEAR     18   7  62 S6        30.09F WCI  10
SISSETON         N/A     23   9  55 VRB7      30.02  WCI  15
ABERDEEN       PTCLDY    11   6  81 S7        30.06F WCI   0
MITCHELL       CLEAR     17   8  67 S3        30.11F
PIERRE         PTCLDY    23  15  71 W7        30.10F WCI  15
MOBRIDGE       CLOUDY    20  14  77 SE6       30.02F WCI  12
RAPID CITY     MOCLDY    30  16  56 W3        30.11F
$$

  *****  SOME WEATHER IN NEARBY STATES *****

CITY           SKY/WX    TMP DP  RH WIND       PRES   REMARKS
GLASGOW MT     PTCLDY    34  19  54 W7        30.06S
GREAT FALLS MT CLEAR     34  15  46 SW9       30.12S
CHEYENNE WY    CLOUDY    32  13  45 W6        30.22S
SCOTTSBLUFF NE MOCLDY    27  21  78 NW5       30.21F WCI  22
OMAHA NE       CLOUDY    26  11  52 S14       30.29F WCI  14
DES MOINES IA  PTCLDY    17   4  56 S13       30.36F WCI   4
DAVENPORT IA   PTCLDY     2  -4  76 S8        30.48F WCI -12
CHICAGO IL     PTCLDY     5  -4  66 W6        30.50F WCI  -6
EAU CLAIRE WI  PTCLDY     2  -5  72 S8        30.29F WCI -12
LA CROSSE WI   PTCLDY     5  -4  66 S12       30.39F WCI -11
$$

  *****  SOME NATIONAL WEATHER *****

CITY           SKY/WX    TMP DP  RH WIND       PRES   REMARKS
LA GUARDIA NY  CLEAR     18   4  54 N16       30.41R WCI   3
RALEIGH NC     MOCLDY    30  21  69 N8        30.37R WCI  22
ATLANTA GA     CLOUDY    28  22  78 NW15      30.31R WCI  16
NEW ORLEANS LA PTCLDY    34  24  67 N20G26    30.45S WCI  23
OKLAHOMA CITY  CLEAR     27  16  63 S7        30.49S WCI  19
ALBUQUERQUE NM CLEAR     36  13  38 E6        30.38S
SALT LAKE CITY PTCLDY    35  22  58 S7        30.42S
LOS ANGELES CA CLEAR     61  29  29 CALM      30.16F
BOISE ID       CLEAR     36  20  52 SE6       30.38R
SEATTLE WA     PTCLDY    46  32  58 N5        30.39S
$$

*** WEATHER ACROSS MANITOBA...SASKATCHEWAN AND ONTARIO ***
                ***ONTARIO***

CITY           SKY/WX    TMP DP  RH WIND       PRES   REMARKS
GERALDTON      CLOUDY     7  -8  51 SW15      29.94F WCI -11
THUNDER BAY    MOCLDY    -8 -15  71 CALM      30.09F
SIOUX LOOKOUT  CLOUDY    12   0  57 SW12G17   29.84F WCI  -2
TORONTO        CLEAR      1  -4  78 W2        30.48R
BIG TROUT LK   LGT SNOW  10   5  79 W9        29.62F WCI  -2
PICKLE LAKE    NOT AVBL
DRYDEN         MOCLDY    10   1  67 SW13G22   29.84F WCI  -5
KENORA         PTCLDY    12   5  73 S10       29.83F WCI  -1
$$
                *** MANITOBA***

CITY           SKY/WX    TMP DP  RH WIND       PRES   REMARKS
BRANDON        CLEAR      7   3  85 W10       29.95R WCI  -8
DAUPHIN        CLEAR     14   9  79 W16       29.92R WCI  -2
ISLAND LAKE    FLURRIES   9  -2  61 W10       29.70S WCI  -6
PILOT MOUND      N/A     16  10  79 NW15        N/A  WCI   1
THE PAS        CLEAR     14   9  79 NW8       29.85R WCI   3
THOMPSON       CLEAR      5  -2  72 NW7       29.71S WCI  -7
WINNIPEG       PTCLDY     9   1  72 W12       29.90F WCI  -6
LYNN LAKE      CLEAR      7   1  78 NW8       29.75R WCI  -6
CHURCHILL      CRYSTALS  -6  -9  84 NW13      29.65R DRFTSNOWWCI -25
GILLAM         FLURRIES   7   0  72 N9        29.64R WCI  -7
$$
                ***SASKATCHEWAN***

CITY           SKY/WX    TMP DP  RH WIND       PRES   REMARKS
ESTEVAN        PTCLDY    16  10  79 W14       30.01F WCI   1
KINDERSLEY     CLOUDY    21  19  93 S6        29.97F WCI  14
LLOYDMINSTER   CLOUDY    30  21  69 SW15      29.88F WCI  19
PRINCE ALBERT  MOCLDY    18  10  73 SW5       29.91F WCI  11
REGINA         CLEAR      7   5  92 W5        30.01F WCI  -2
YORKTON        CLEAR     18  10  73 NW15      29.94R WCI   3
N. BATTLEFORD  MOCLDY    16  12  86 S6        29.96F WCI   7
LA RONGE       CLOUDY    25  14  63 SW5       29.83F WCI  19
SASKATOON      CLEAR     10   9  92 SW7       29.99S WCI   0
SWIFT CURRENT  MOCLDY    21  18  86 SW13      29.99F WCI   9
$$
NOTE: THESE ARE AUTOMATED STATIONS WITH LIMITED QUALITY CONTROL
      "FAIR" INDICATES FEW OR NO CLOUDS BELOW 12,000 FEET WITH NO
      SIGNIFICANT WEATHER AND/OR OBSTRUCTIONS TO VISIBILITY.
      SKY/WX - SKY CONDITION AND SIGNIFICANT WEATHER.
      TMP - AIR TEMPERATURE.    DP   - DEWPOINT TEMPERATURE.
      RH  - RELATIVE HUMIDITY.  PRES - PRESSURE.
      HX  - HEAT INDEX.         WCI  - WIND CHILL INDEX.
$


USA.gov is the U.S. government's official web portal to all federal, state and local government web resources and services.